Location: Arroyo de San Miguel
(40.9167°N, 4.6667°W)
Time: 02:16:59
(UTC+00:00)

Cosmos 1833 Rocket - Pass Details

Date: 19 May 2025
Orbit: 832 x 838 km, 71.0° (Epoch: 24 June)

Event Time Altitude Azimuth Distance (km) Brightness Sun altitude
Rises 22:02:51 0° 227° (SW) 3,377 5.7 -21.8°
Reaches altitude 10° 22:05:29 10° 236° (SW) 2,447 5.1 -22.1°
Maximum altitude 22:10:35 35° 302° (WNW) 1,321 4.2 -22.6°
Drops below altitude 10° 22:15:45 10° 8° (N) 2,460 5.8 -23.1°
Sets 22:18:25 0° 17° (NNE) 3,398 6.5 -23.3°
